Weather in Kama

Russia / Perm Krai     59°10′04″N   56°10′06″E
temp.,
°C
wind,
m/s
gust,
m/s
humid.,
%
clouds,
%
prec.,
mm/h
press.,
hPa
HPBL,
m
25 february, thu
thu2523:00−26nnw25985 0.0 103288
02:00−27nnw22980 0.0 103119
05:00−28nw12980 0.0 103119
08:00−29nw1110054 0.0 103019
11:00−23sw119227 0.0 1029173
14:00−19s228665 0.0 1028327
17:00−20s239257 0.0 1027219
20:00−23sse22960 0.0 102720
26 february, fri
fri2623:00−24sse229814 0.0 102724
02:00−24sse229897 0.0 102638
05:00−25sse239898 0.0 102765
08:00−27sse259698 0.0 1026115
11:00−23sse369178 0.0 1025278
14:00−18sse378525 0.0 1023424
17:00−16sse388512 0.0 1022540
20:00−20sse38950 0.0 1020163
27 february, sat
sat2723:00−21se310930 0.0 1019205
02:00−21se310950 0.0 1017230
05:00−21se39960 0.0 1016245
08:00−22ese39900 0.0 1014247
11:00−18ese48830 0.0 1013405
14:00−13ese49820 0.0 1011658
17:00−13se4108337 0.0 1011800
20:00−18e31291100 0.0 1012661
28 february, sun
sun2823:00−21e3119298 0.0 1013482
02:00−22e3109290 0.0 1013327
05:00−22ene389287 0.0 1013237
08:00−20ne379691 0.0 1009290
11:00−18ene369192 0.1 1010473
14:00−14ne3588100 0.1 1011586
17:00−14nne3690100 0.2 1012497
20:00−16ne269698 0.1 1014152
1 march, mon
mon123:00−19ene119792 0.1 101620
02:00−21s019685 0.0 101720
05:00−24nnw119662 0.0 101920
08:00−24nnw12970 0.0 102020
11:00−20nnw11900 0.0 1020190
14:00−14sw018241 0.0 1019341
17:00−13sw128347 0.0 1018392
20:00−19ssw239846 0.0 101742